"Pseudo-MPEC" for ROTAT02

Created 2019 Mar 16 10:18:19 UT using Find_Orb

Click here for an explanation of pseudo-MPECs

 
 Astrometry: 
     ROTAT02 KC2019 03 14.98275011 17 24.99 +47 33 13.8    ~3FDm 19.8 GVNEOCPC95
     ROTAT02 KC2019 03 14.98999311 17 18.77 +47 33 03.0    ~3FDm 19.7 GVNEOCPC95
     ROTAT02 KC2019 03 14.99723611 17 12.77 +47 32 53.8    ~3FDm 19.4 GVNEOCPC95

Station data:
(C95) SATINO Remote Observatory, Haute Provence  (N43.932042 E5.712390)
   France.

Orbital elements:  ROTAT02
   Perihelion 2019 Jun 23.110674 +/- 83.4 TT =  2:39:22 (JD 2458657.610674)
Epoch 2019 Mar 15.0 TT = JDT 2458557.5   Earth MOID: 0.0063   AutoNEOCP
M 261.95286208 +/- 110              (J2000 ecliptic)
n   0.97938745 +/- 0.629            Peri.  275.76577 +/- 60
a   1.00422961 +/- 0.43             Node     4.73892 +/- 80
e   0.0848736 +/- 0.238             Incl.    7.00206 +/- 45
P   1.01/367.57d           H 25.2   G  0.15   U 12.4  SR
q 0.91899700 +/- 0.411    Q 1.08946222 +/- 12.7
From 3 observations 2019 Mar. 14 (20.9 min); mean residual 0".49
Residuals in arcseconds: 
190314 C95  .37+  .31+    190314 C95  .75-  .62-    190314 C95  .37+  .31+    

Ephemerides (geocentric):
Date (UTC) HH   RA              Dec         delta   r     elong  mag " sig PA
---- -- -- --  -------------   -----------  ------ ------ -----  --- ---- ---
2019 03 16 10  10 58 31.502   +46 51 41.79  .03759 1.0211 134.0 19.8 2686 170
2019 03 16 11  10 57 56.557   +46 50 10.25  .03751 1.0211 134.0 19.8 2798 170
2019 03 16 12  10 57 21.499   +46 48 37.51  .03742 1.0210 134.0 19.8 2915 169
2019 03 16 13  10 56 46.328   +46 47 03.54  .03734 1.0209 133.9 19.8 3036 169
2019 03 16 14  10 56 11.044   +46 45 28.34  .03726 1.0209 133.9 19.8 3162 169
2019 03 16 15  10 55 35.646   +46 43 51.89  .03718 1.0208 133.9 19.8 3294 168
2019 03 16 16  10 55 00.135   +46 42 14.20  .03710 1.0208 133.8 19.8 3431 168
2019 03 16 17  10 54 24.511   +46 40 35.24  .03702 1.0207 133.8 19.8 3576 168
2019 03 16 18  10 53 48.774   +46 38 55.02  .03694 1.0206 133.8 19.8 3727 168
2019 03 16 19  10 53 12.924   +46 37 13.51  .03686 1.0206 133.8 19.8 3886 167
2019 03 16 20  10 52 36.961   +46 35 30.71  .03678 1.0205 133.7 19.8 4054 167
2019 03 16 21  10 52 00.884   +46 33 46.61  .03670 1.0205 133.7 19.8 4231 167
2019 03 16 22  10 51 24.695   +46 32 01.20  .03662 1.0204 133.7 19.8 4419 166
2019 03 16 23  10 50 48.392   +46 30 14.46  .03654 1.0204 133.6 19.8 4619 166
2019 03 17 00  10 50 11.977   +46 28 26.40  .03646 1.0203 133.6 19.8 4831 165
2019 03 17 01  10 49 35.449   +46 26 36.99  .03638 1.0202 133.6 19.8 5058 165
2019 03 17 02  10 48 58.808   +46 24 46.24  .03630 1.0202 133.6 19.8 5301 165
2019 03 17 03  10 48 22.054   +46 22 54.12  .03622 1.0201 133.5 19.8 5563 164
2019 03 17 04  10 47 45.187   +46 21 00.62  .03614 1.0201 133.5 19.8 5844 164
2019 03 17 05  10 47 08.208   +46 19 05.75  .03606 1.0200 133.5 19.7 6148 163
2019 03 17 06  10 46 31.117   +46 17 09.48  .03598 1.0199 133.4 19.7 6477 163
2019 03 17 07  10 45 53.913   +46 15 11.80  .03591 1.0199 133.4 19.7 6834 162
2019 03 17 08  10 45 16.597   +46 13 12.72  .03583 1.0198 133.4 19.7 7224 161
2019 03 17 09  10 44 39.169   +46 11 12.20  .03575 1.0198 133.3 19.7 7651 161
2019 03 17 10  10 44 01.628   +46 09 10.25  .03567 1.0197 133.3 19.7 8120 160
2019 03 17 11  10 43 23.976   +46 07 06.86  .03559 1.0196 133.3 19.7 8636 159
2019 03 17 12  10 42 46.212   +46 05 02.00  .03551 1.0196 133.2 19.7 9207 158
2019 03 17 13  10 42 08.336   +46 02 55.68  .03544 1.0195 133.2 19.7 9842 157
2019 03 17 14  10 41 30.349   +46 00 47.88  .03536 1.0195 133.2 19.7 176' 156
2019 03 17 15  10 40 52.251   +45 58 38.59  .03528 1.0194 133.1 19.7 189' 155
2019 03 17 16  10 40 14.041   +45 56 27.80  .03520 1.0194 133.1 19.7 204' 154
2019 03 17 17  10 39 35.720   +45 54 15.49  .03513 1.0193 133.1 19.7 221' 153
2019 03 17 18  10 38 57.289   +45 52 01.67  .03505 1.0192 133.0 19.7 240' 152
2019 03 17 19  10 38 18.746   +45 49 46.31  .03497 1.0192 133.0 19.7 263' 150
2019 03 17 20  10 37 40.094   +45 47 29.40  .03490 1.0191 132.9 19.7 288' 148
2019 03 17 21  10 37 01.331   +45 45 10.93  .03482 1.0191 132.9 19.7 319' 147
2019 03 17 22  10 36 22.458   +45 42 50.90  .03474 1.0190 132.9 19.7 354' 145
2019 03 17 23  10 35 43.475   +45 40 29.29  .03467 1.0189 132.8 19.7 397' 143
2019 03 18 00  10 35 04.382   +45 38 06.09  .03459 1.0189 132.8 19.7 448' 140
2019 03 18 01  10 34 25.181   +45 35 41.29  .03451 1.0188 132.7 19.7 509' 138
2019 03 18 02  10 33 45.869   +45 33 14.87  .03444 1.0188 132.7 19.7 581' 135
2019 03 18 03  10 33 06.450   +45 30 46.83  .03436 1.0187 132.7 19.7 661' 134
2019 03 18 04  10 32 26.921   +45 28 17.15  .03429 1.0186 132.6 19.7 741' 133
2019 03 18 05  10 31 47.284   +45 25 45.82  .03421 1.0186 132.6 19.7 818' 132
2019 03 18 06  10 31 07.539   +45 23 12.84  .03414 1.0185 132.5 19.7 885' 133
2019 03 18 07  10 30 27.686   +45 20 38.18  .03406 1.0185 132.5 19.6 944' 133
2019 03 18 08  10 29 47.725   +45 18 01.84  .03399 1.0184 132.5 19.6 995' 134
2019 03 18 09  10 29 07.658   +45 15 23.81  .03391 1.0183 132.4 19.6  17d 134